| time (UTC) | temp F | wind direction | speed MPH | gust MPH | rain 1hr in | rain 24hr in | rain mn in | humidity % | barometer mb |
| 20260510093029 | 65 | 13 | 0.0 | 0.0 | 0.00 | 0.79 | 0.00 | 94 | 1014.4 |
| 20260510091534 | 66 | 217 | 0.0 | 1.0 | 0.00 | 0.79 | 0.00 | 94 | 1014.8 |
| 20260510090025 | 66 | 196 | 0.0 | 1.0 | 0.00 | 0.79 | 0.00 | 94 | 1014.8 |
| 20260510084523 | 66 | 118 | 1.0 | 3.0 | 0.00 | 0.79 | 0.00 | 94 | 1014.7 |
| 20260510083026 | 66 | 160 | 1.0 | 2.0 | 0.00 | 0.79 | 0.00 | 94 | 1014.7 |
| 20260510081526 | 66 | 174 | 0.0 | 2.0 | 0.00 | 0.79 | 0.00 | 93 | 1014.4 |
| 20260510080016 | 66 | 80 | 0.0 | 1.0 | 0.00 | 0.79 | 0.00 | 93 | 1014.2 |
| 20260510074522 | 65 | 160 | 0.0 | 1.0 | 0.00 | 0.79 | 0.00 | 94 | 1014.2 |
| 20260510073025 | 65 | 104 | 0.0 | 1.0 | 0.00 | 0.79 | 0.00 | 94 | 1014.0 |
| 20260510071508 | 65 | 84 | 1.0 | 2.0 | 0.00 | 0.79 | 0.00 | 95 | 1014.0 |
| 20260510070016 | 66 | 209 | 1.0 | 3.0 | 0.00 | 0.79 | 0.00 | 95 | 1014.0 |
| 20260510064530 | 65 | 168 | 0.0 | 2.0 | 0.00 | 0.79 | 0.00 | 94 | 1014.0 |
| 20260510063024 | 65 | 139 | 0.0 | 3.0 | 0.00 | 0.79 | 0.00 | 94 | 1013.9 |
| 20260510061528 | 65 | 157 | 1.0 | 3.0 | 0.00 | 0.79 | 0.00 | 95 | 1013.8 |
| 20260510060012 | 65 | 74 | 0.0 | 1.0 | 0.00 | 0.79 | 0.00 | 95 | 1013.6 |
| 20260510054515 | 65 | 33 | 1.0 | 1.0 | 0.00 | 0.79 | 0.00 | 96 | 1013.8 |
| 20260510053025 | 65 | 25 | 0.0 | 3.0 | 0.00 | 0.79 | 0.00 | 95 | 1013.8 |
| 20260510051526 | 65 | 72 | 0.0 | 2.0 | 0.00 | 0.79 | 0.00 | 94 | 1013.8 |
| 20260510050027 | 65 | 107 | 1.0 | 2.0 | 0.00 | 0.79 | 0.00 | 93 | 1013.9 |
| 20260510044516 | 65 | 113 | 2.0 | 3.0 | 0.00 | 0.79 | 0.79 | 94 | 1014.2 |
| 20260510043020 | 65 | 105 | 2.0 | 2.0 | 0.00 | 0.79 | 0.79 | 95 | 1014.2 |
| 20260510041525 | 66 | 65 | 0.0 | 2.0 | 0.00 | 0.79 | 0.79 | 94 | 1014.3 |
| 20260510040026 | 66 | 57 | 0.0 | 1.0 | 0.00 | 0.79 | 0.79 | 94 | 1014.5 |
| 20260510034529 | 66 | 153 | 0.0 | 2.0 | 0.00 | 0.79 | 0.79 | 93 | 1014.9 |
| 20260510033022 | 65 | 203 | 0.0 | 2.0 | 0.00 | 0.79 | 0.79 | 94 | 1014.4 |
| 20260510031520 | 66 | 94 | 2.0 | 3.0 | 0.00 | 0.79 | 0.79 | 95 | 1014.1 |
| 20260510030027 | 66 | 243 | 0.0 | 2.0 | 0.00 | 0.79 | 0.79 | 94 | 1014.9 |
| 20260510024529 | 66 | 72 | 1.0 | 3.0 | 0.00 | 0.79 | 0.79 | 92 | 1014.3 |
| 20260510023032 | 67 | 119 | 0.0 | 2.0 | 0.00 | 0.79 | 0.79 | 92 | 1014.5 |
| 20260510021525 | 66 | 214 | 0.0 | 2.0 | 0.00 | 0.79 | 0.79 | 93 | 1014.6 |
| 20260510020024 | 66 | 177 | 0.0 | 2.0 | 0.00 | 0.79 | 0.79 | 93 | 1014.3 |
| 20260510014526 | 66 | 308 | 1.0 | 2.0 | 0.00 | 0.79 | 0.79 | 93 | 1014.1 |
| 20260510013029 | 67 | 39 | 2.0 | 2.0 | 0.00 | 0.79 | 0.79 | 91 | 1014.1 |
| 20260510011528 | 67 | 161 | 0.0 | 3.0 | 0.00 | 0.79 | 0.79 | 90 | 1013.9 |
| 20260510010020 | 67 | 272 | 0.0 | 0.0 | 0.00 | 0.79 | 0.79 | 91 | 1013.9 |
| 20260510004524 | 67 | 299 | 2.0 | 3.0 | 0.00 | 0.79 | 0.79 | 91 | 1013.9 |
| 20260510003026 | 67 | 301 | 2.0 | 4.0 | 0.00 | 0.79 | 0.79 | 91 | 1013.7 |
| 20260510001528 | 68 | 217 | 1.0 | 3.0 | 0.00 | 0.79 | 0.79 | 88 | 1013.4 |
| 20260510000016 | 68 | 210 | 2.0 | 3.0 | 0.00 | 0.79 | 0.79 | 88 | 1013.2 |
| 20260509234536 | 68 | 153 | 1.0 | 3.0 | 0.00 | 0.79 | 0.79 | 89 | 1013.0 |
| 20260509233026 | 68 | 221 | 1.0 | 3.0 | 0.00 | 0.79 | 0.79 | 89 | 1013.4 |
| 20260509231528 | 69 | 179 | 2.0 | 3.0 | 0.00 | 0.79 | 0.79 | 89 | 1013.1 |
| 20260509230031 | 69 | 144 | 1.0 | 3.0 | 0.00 | 0.79 | 0.79 | 87 | 1012.9 |
| 20260509224530 | 70 | 176 | 1.0 | 2.0 | 0.00 | 0.79 | 0.79 | 85 | 1013.1 |
| 20260509223004 | 69 | 214 | 0.0 | 2.0 | 0.00 | 0.79 | 0.79 | 86 | 1013.0 |
| 20260509221507 | 69 | 205 | 0.0 | 3.0 | 0.00 | 0.79 | 0.79 | 87 | 1012.8 |
| 20260509220011 | 68 | 248 | 0.0 | 2.0 | 0.00 | 0.81 | 0.79 | 88 | 1012.4 |
| 20260509214519 | 68 | 124 | 1.0 | 3.0 | 0.00 | 0.81 | 0.79 | 89 | 1012.3 |
| 20260509213023 | 69 | 208 | 1.0 | 2.0 | 0.00 | 0.82 | 0.79 | 88 | 1012.2 |
| 20260509211508 | 68 | 231 | 1.0 | 3.0 | 0.00 | 0.83 | 0.79 | 88 | 1012.4 |
| 20260509210008 | 69 | 188 | 0.0 | 3.0 | 0.00 | 0.86 | 0.79 | 87 | 1012.3 |
| 20260509204513 | 68 | 190 | 2.0 | 4.0 | 0.00 | 0.93 | 0.79 | 89 | 1012.8 |
| 20260509203018 | 67 | 196 | 3.0 | 7.0 | 0.00 | 0.98 | 0.79 | 89 | 1012.8 |
| 20260509201524 | 67 | 201 | 3.0 | 6.0 | 0.00 | 1.04 | 0.79 | 89 | 1012.8 |
| 20260509200007 | 68 | 206 | 2.0 | 7.0 | 0.00 | 1.08 | 0.79 | 90 | 1012.7 |
| 20260509194510 | 68 | 233 | 2.0 | 6.0 | 0.00 | 1.12 | 0.79 | 88 | 1012.7 |
| 20260509193018 | 68 | 231 | 3.0 | 5.0 | 0.00 | 1.15 | 0.79 | 87 | 1012.9 |
| 20260509191523 | 68 | 269 | 4.0 | 7.0 | 0.00 | 1.17 | 0.79 | 88 | 1013.0 |
| 20260509190029 | 68 | 252 | 2.0 | 7.0 | 0.00 | 1.20 | 0.79 | 89 | 1012.8 |
| 20260509184518 | 67 | 233 | 2.0 | 7.0 | 0.00 | 1.21 | 0.79 | 90 | 1013.1 |
| 20260509183013 | 67 | 131 | 2.0 | 8.0 | 0.00 | 1.23 | 0.79 | 90 | 1013.0 |
| 20260509181517 | 68 | 163 | 2.0 | 7.0 | 0.00 | 1.25 | 0.79 | 90 | 1012.8 |
| 20260509180027 | 68 | 207 | 3.0 | 4.0 | 0.00 | 1.26 | 0.79 | 88 | 1012.6 |
| 20260509174507 | 67 | 298 | 1.0 | 3.0 | 0.00 | 1.27 | 0.79 | 90 | 1012.6 |
| 20260509173015 | 67 | 222 | 2.0 | 3.0 | 0.00 | 1.31 | 0.79 | 91 | 1013.0 |
| 20260509171518 | 67 | 220 | 0.0 | 2.0 | 0.00 | 1.33 | 0.79 | 90 | 1013.0 |
| 20260509170039 | 67 | 191 | 1.0 | 3.0 | 0.00 | 1.36 | 0.79 | 91 | 1013.5 |
| 20260509164527 | 67 | 83 | 2.0 | 4.0 | 0.00 | 1.38 | 0.79 | 92 | 1013.8 |
| 20260509163014 | 67 | 143 | 0.0 | 3.0 | 0.00 | 1.40 | 0.79 | 92 | 1014.2 |
| 20260509161513 | 65 | 290 | 1.0 | 1.0 | 0.00 | 1.42 | 0.79 | 92 | 1014.0 |
| 20260509160020 | 66 | 221 | 0.0 | 2.0 | 0.00 | 1.44 | 0.79 | 92 | 1013.6 |
| 20260509154524 | 65 | 129 | 0.0 | 1.0 | 0.00 | 1.44 | 0.79 | 93 | 1013.3 |
| 20260509153031 | 64 | 282 | 0.0 | 2.0 | 0.00 | 1.44 | 0.79 | 95 | 1013.5 |
| 20260509151510 | 64 | 148 | 0.0 | 0.0 | 0.02 | 1.44 | 0.79 | 94 | 1013.3 |
| 20260509150016 | 64 | 52 | 0.0 | 3.0 | 0.08 | 1.44 | 0.79 | 94 | 1013.0 |
| 20260509144520 | 63 | 119 | 4.0 | 10.0 | 0.13 | 1.44 | 0.79 | 95 | 1013.1 |
| 20260509143025 | 63 | 110 | 5.0 | 12.0 | 0.20 | 1.44 | 0.79 | 96 | 1012.9 |
| 20260509141539 | 63 | 134 | 2.0 | 11.0 | 0.24 | 1.42 | 0.77 | 96 | 1013.1 |
| 20260509140015 | 63 | 181 | 6.0 | 9.0 | 0.22 | 1.36 | 0.71 | 96 | 1012.7 |
| 20260509134529 | 64 | 158 | 3.0 | 8.0 | 0.21 | 1.31 | 0.66 | 96 | 1013.3 |
| 20260509133024 | 64 | 174 | 4.0 | 7.0 | 0.19 | 1.24 | 0.58 | 95 | 1013.6 |
| 20260509131507 | 64 | 146 | 1.0 | 3.0 | 0.18 | 1.17 | 0.52 | 95 | 1014.1 |
| 20260509130012 | 64 | 71 | 3.0 | 5.0 | 0.18 | 1.14 | 0.49 | 96 | 1014.3 |
| 20260509124517 | 63 | 323 | 4.0 | 6.0 | 0.18 | 1.10 | 0.45 | 96 | 1014.3 |
| 20260509123024 | 63 | 255 | 2.0 | 4.0 | 0.37 | 1.04 | 0.40 | 96 | 1015.0 |
| 20260509121528 | 63 | 10 | 2.0 | 6.0 | 0.33 | 1.00 | 0.35 | 96 | 1014.0 |
| 20260509120018 | 63 | 347 | 5.0 | 12.0 | 0.30 | 0.96 | 0.31 | 96 | 1014.1 |
| 20260509114514 | 63 | 4 | 8.0 | 15.0 | 0.27 | 0.92 | 0.27 | 96 | 1014.3 |
| 20260509113028 | 64 | 319 | 9.0 | 15.0 | 0.03 | 0.68 | 0.03 | 97 | 1014.5 |
| 20260509111521 | 64 | 315 | 1.0 | 2.0 | 0.02 | 0.67 | 0.02 | 97 | 1012.2 |
| 20260509110008 | 63 | 134 | 1.0 | 3.0 | 0.01 | 0.66 | 0.01 | 97 | 1011.7 |
| 20260509104510 | 64 | 64 | 1.0 | 2.0 | 0.00 | 0.65 | 0.00 | 97 | 1011.8 |
| 20260509103014 | 63 | 32 | 4.0 | 6.0 | 0.00 | 0.65 | 0.00 | 97 | 1011.4 |
| 20260509101529 | 63 | 72 | 3.0 | 4.0 | 0.00 | 0.65 | 0.00 | 97 | 1011.3 |
| 20260509100024 | 63 | 30 | 1.0 | 3.0 | 0.00 | 0.65 | 0.00 | 97 | 1011.7 |
| 20260509094509 | 63 | 44 | 3.0 | 5.0 | 0.00 | 0.65 | 0.00 | 96 | 1011.2 |